• In Netherlands
  • List of Countries
  • For 7 days
  • Water Temperature
  • Satellite Maps
  • Weather Map
  • Weather Widgets
  • user-avatar
    Login

    Hourly Weather Sidi Bu-l-Abbas

    Today, 23 August, Wednesday

    Time Temperature Precipitation Wind Pressure Humidity
    00:00 +27°C° 0 mm 1 mps 721 mmHg 49%
    01:00 +27°C° 0 mm 1 mps 721 mmHg 51%
    02:00 +26°C° 0 mm 1 mps 720 mmHg 53%
    03:00 +26°C° 0 mm 1 mps 720 mmHg 55%
    04:00 +25°C° 0 mm 1 mps 720 mmHg 56%
    05:00 +25°C° 0 mm 1 mps 720 mmHg 56%
    06:00 +25°C° 0 mm 1 mps 721 mmHg 56%
    07:00 +27°C° 0 mm 1 mps 721 mmHg 47%
    08:00 +29°C° 0 mm 1 mps 721 mmHg 39%
    09:00 +31°C° 0 mm 1 mps 722 mmHg 30%
    10:00 +32°C° 0 mm 1 mps 722 mmHg 27%
    11:00 +35°C° 0 mm 2 mps 722 mmHg 24%
    12:00 +36°C° 0 mm 2 mps 722 mmHg 20%
    13:00 +37°C° 0 mm 3 mps 721 mmHg 21%
    14:00 +37°C° 0 mm 4 mps 721 mmHg 21%
    15:00 +37°C° 0 mm 4 mps 721 mmHg 22%
    16:00 +36°C° 0 mm 4 mps 721 mmHg 25%
    17:00 +35°C° 0 mm 4 mps 720 mmHg 27%
    18:00 +35°C° 0 mm 4 mps 720 mmHg 30%
    19:00 +34°C° 0 mm 3 mps 720 mmHg 34%
    20:00 +32°C° 0 mm 2 mps 721 mmHg 37%
    21:00 +30°C° 0 mm 2 mps 721 mmHg 40%
    22:00 +30°C° 0 mm 1 mps 721 mmHg 42%
    23:00 +29°C° 0 mm 1 mps 721 mmHg 44%

    Tomorrow, 24 August, Thursday

    Time Temperature Precipitation Wind Pressure Humidity
    00:00 +29°C° 0 mm 1 mps 721 mmHg 45%
    01:00 +28°C° 0 mm 1 mps 720 mmHg 47%
    02:00 +28°C° 0 mm 1 mps 720 mmHg 49%
    03:00 +27°C° 0 mm 1 mps 720 mmHg 51%
    04:00 +25°C° 0 mm 0 mps 720 mmHg 53%
    05:00 +25°C° 0 mm 0 mps 720 mmHg 54%
    06:00 +24°C° 0 mm 0 mps 720 mmHg 56%
    07:00 +26°C° 0 mm 0 mps 721 mmHg 49%
    08:00 +30°C° 0 mm 1 mps 721 mmHg 43%
    09:00 +32°C° 0 mm 1 mps 722 mmHg 36%
    10:00 +33°C° 0 mm 1 mps 722 mmHg 32%
    11:00 +35°C° 0 mm 2 mps 722 mmHg 29%
    12:00 +37°C° 0 mm 2 mps 722 mmHg 26%
    13:00 +37°C° 0 mm 3 mps 721 mmHg 27%
    14:00 +37°C° 0 mm 4 mps 721 mmHg 28%
    15:00 +37°C° 0 mm 4 mps 720 mmHg 29%
    16:00 +36°C° 0 mm 4 mps 720 mmHg 30%
    17:00 +35°C° 0 mm 3 mps 720 mmHg 32%
    18:00 +35°C° 0 mm 3 mps 720 mmHg 33%
    19:00 +34°C° 0 mm 2 mps 720 mmHg 34%
    20:00 +34°C° 0 mm 2 mps 721 mmHg 36%
    21:00 +32°C° 0 mm 1 mps 721 mmHg 38%
    22:00 +31°C° 0 mm 1 mps 721 mmHg 39%
    23:00 +31°C° 0 mm 1 mps 721 mmHg 41%

    Day after tomorrow, 25 August, Friday

    Time Temperature Precipitation Wind Pressure Humidity
    00:00 +30°C° 0 mm 1 mps 721 mmHg 43%
    01:00 +30°C° 0 mm 1 mps 720 mmHg 44%
    02:00 +29°C° 0 mm 1 mps 720 mmHg 45%
    03:00 +29°C° 0 mm 1 mps 720 mmHg 46%
    04:00 +29°C° 0 mm 1 mps 720 mmHg 47%
    05:00 +29°C° 0 mm 1 mps 720 mmHg 47%
    06:00 +29°C° 0 mm 1 mps 720 mmHg 48%
    07:00 +30°C° 0 mm 1 mps 720 mmHg 42%
    08:00 +32°C° 0 mm 1 mps 721 mmHg 36%
    09:00 +34°C° 0 mm 1 mps 721 mmHg 30%
    10:00 +36°C° 0 mm 2 mps 721 mmHg 27%
    11:00 +38°C° 0 mm 3 mps 721 mmHg 25%
    12:00 +40°C° 0 mm 4 mps 721 mmHg 22%
    13:00 +40°C° 0 mm 4 mps 720 mmHg 23%
    14:00 +40°C° 0 mm 4 mps 720 mmHg 24%
    15:00 +40°C° 0 mm 5 mps 719 mmHg 25%
    16:00 +38°C° 0 mm 4 mps 719 mmHg 27%
    17:00 +37°C° 0 mm 4 mps 719 mmHg 29%
    18:00 +36°C° 0 mm 3 mps 719 mmHg 32%
    19:00 +35°C° 0 mm 3 mps 719 mmHg 34%
    20:00 +34°C° 0 mm 2 mps 720 mmHg 37%
    21:00 +32°C° 0 mm 1 mps 720 mmHg 40%
    22:00 +32°C° 0 mm 1 mps 720 mmHg 40%
    23:00 +32°C° 0 mm 1 mps 720 mmHg 41%

    26 August, Saturday

    Time Temperature Precipitation Wind Pressure Humidity
    00:00 +31°C° 0 mm 1 mps 719 mmHg 42%
    01:00 +31°C° 0 mm 1 mps 719 mmHg 43%
    02:00 +30°C° 0 mm 1 mps 719 mmHg 44%
    03:00 +30°C° 0 mm 1 mps 719 mmHg 45%
    04:00 +30°C° 0 mm 1 mps 719 mmHg 46%
    05:00 +29°C° 0 mm 1 mps 719 mmHg 47%
    06:00 +29°C° 0 mm 1 mps 719 mmHg 48%
    07:00 +31°C° 0 mm 1 mps 719 mmHg 43%
    08:00 +32°C° 0 mm 1 mps 719 mmHg 37%
    09:00 +35°C° 0 mm 2 mps 720 mmHg 32%
    10:00 +36°C° 0 mm 2 mps 720 mmHg 29%
    11:00 +37°C° 0 mm 2 mps 720 mmHg 26%
    12:00 +38°C° 0 mm 3 mps 719 mmHg 23%
    13:00 +39°C° 0 mm 3 mps 719 mmHg 23%
    14:00 +39°C° 0 mm 3 mps 719 mmHg 23%
    15:00 +40°C° 0 mm 4 mps 719 mmHg 22%
    16:00 +40°C° 0 mm 4 mps 718 mmHg 25%
    17:00 +38°C° 0 mm 4 mps 718 mmHg 28%
    18:00 +37°C° 0 mm 4 mps 718 mmHg 31%
    19:00 +36°C° 0 mm 4 mps 719 mmHg 34%
    20:00 +35°C° 0 mm 4 mps 719 mmHg 38%
    21:00 +34°C° 0 mm 4 mps 719 mmHg 41%
    22:00 +33°C° 0 mm 3 mps 720 mmHg 43%
    23:00 +33°C° 0 mm 3 mps 720 mmHg 44%

    27 August, Sunday

    Time Temperature Precipitation Wind Pressure Humidity
    00:00 +31°C° 0 mm 2 mps 720 mmHg 46%
    01:00 +31°C° 0 mm 2 mps 720 mmHg 45%
    02:00 +31°C° 0 mm 1 mps 720 mmHg 43%
    03:00 +31°C° 0 mm 1 mps 720 mmHg 42%
    04:00 +31°C° 0 mm 1 mps 720 mmHg 41%
    05:00 +31°C° 0 mm 1 mps 720 mmHg 40%
    06:00 +31°C° 0 mm 2 mps 720 mmHg 40%
    07:00 +32°C° 0 mm 2 mps 720 mmHg 35%
    08:00 +35°C° 0 mm 3 mps 720 mmHg 30%
    09:00 +36°C° 0 mm 4 mps 720 mmHg 26%
    10:00 +37°C° 0 mm 4 mps 720 mmHg 24%
    11:00 +38°C° 0 mm 4 mps 720 mmHg 23%
    12:00 +39°C° 0 mm 5 mps 720 mmHg 21%
    13:00 +40°C° 0 mm 4 mps 719 mmHg 20%
    14:00 +40°C° 0 mm 4 mps 719 mmHg 19%
    15:00 +40°C° 0 mm 3 mps 718 mmHg 18%
    16:00 +41°C° 0 mm 4 mps 718 mmHg 18%
    17:00 +40°C° 0 mm 4 mps 718 mmHg 18%
    18:00 +40°C° 0 mm 5 mps 718 mmHg 18%
    19:00 +37°C° 0.4 mm 4 mps 718 mmHg 28%
    20:00 +34°C° 0.4 mm 4 mps 719 mmHg 39%
    21:00 +32°C° 0.4 mm 4 mps 719 mmHg 49%
    22:00 +31°C° 0 mm 3 mps 719 mmHg 48%
    23:00 +31°C° 0 mm 3 mps 719 mmHg 48%

    28 August, Monday

    Time Temperature Precipitation Wind Pressure Humidity
    00:00 +31°C° 0 mm 2 mps 719 mmHg 47%
    01:00 +31°C° 0 mm 2 mps 719 mmHg 46%
    02:00 +31°C° 0 mm 2 mps 719 mmHg 45%
    03:00 +31°C° 0 mm 1 mps 719 mmHg 45%
    04:00 +30°C° 0 mm 2 mps 719 mmHg 46%
    05:00 +30°C° 0 mm 2 mps 719 mmHg 47%
    06:00 +29°C° 0 mm 2 mps 719 mmHg 48%
    07:00 +30°C° 0 mm 2 mps 720 mmHg 44%
    08:00 +31°C° 0 mm 2 mps 720 mmHg 40%
    09:00 +32°C° 0 mm 2 mps 720 mmHg 36%
    10:00 +35°C° 0 mm 3 mps 720 mmHg 31%
    11:00 +36°C° 0 mm 4 mps 720 mmHg 27%
    12:00 +39°C° 0 mm 5 mps 720 mmHg 22%
    13:00 +40°C° 0 mm 5 mps 719 mmHg 20%
    14:00 +41°C° 0 mm 5 mps 719 mmHg 18%
    15:00 +42°C° 0 mm 6 mps 718 mmHg 16%
    16:00 +41°C° 0 mm 6 mps 718 mmHg 17%
    17:00 +40°C° 0 mm 6 mps 718 mmHg 18%
    18:00 +40°C° 0 mm 6 mps 718 mmHg 20%
    19:00 +37°C° 0 mm 5 mps 718 mmHg 24%
    20:00 +36°C° 0 mm 4 mps 718 mmHg 27%
    21:00 +35°C° 0 mm 3 mps 718 mmHg 31%
    22:00 +33°C° 0 mm 3 mps 718 mmHg 37%
    23:00 +32°C° 0 mm 4 mps 717 mmHg 42%
    Show more